GW5682 Weather Reports


Display with metric or nautical units.
time (UTC)temp
F
wind
direction
speed
MPH
gust
MPH
rain 1hr
in
rain 24hr
in
rain mn
in
humidity
%
barometer
mb
20260508082608 58 0.0 0.0 0.09 0.09 0.09 91 1016.4
20260508081631 59 0.0 1.0 0.06 0.06 0.06 91 1016.8
20260508080607 58 0.0 1.0 0.00 0.00 0.00 91 1017.6
20260508075632 58 270 1.0 1.0 0.00 0.00 0.00 91 1017.4
20260508074608 58 0.0 0.0 0.00 0.00 0.00 90 1017.3
20260508073652 57 0.0 0.0 0.00 0.00 0.00 90 1017.2
20260508072608 57 0.0 0.0 0.00 0.00 0.00 90 1017.0
20260508071632 57 0.0 0.0 0.00 0.00 0.00 89 1017.2
20260508070607 57 0.0 0.0 0.00 0.00 0.00 88 1017.2
20260508065652 57 0.0 0.0 0.00 0.00 0.00 87 1017.4
20260508064607 57 0.0 0.0 0.00 0.00 0.00 87 1017.9
20260508063632 57 0.0 0.0 0.00 0.00 0.00 86 1017.9
20260508062628 57 0.0 0.0 0.00 0.00 0.00 85 1017.9
20260508061632 58 0.0 0.0 0.00 0.00 0.00 85 1017.7
20260508060607 58 0.0 0.0 0.00 0.00 0.00 85 1017.5
20260508055652 58 0.0 0.0 0.00 0.00 0.00 84 1017.6
20260508054123 58 0.0 0.0 0.00 0.00 0.00 83 1017.7
20260508053147 58 0.0 0.0 0.00 0.00 0.00 83 1017.9
20260508052123 58 0.0 0.0 0.00 0.00 0.00 82 1017.9
20260508051147 59 0.0 0.0 0.00 0.00 0.00 82 1017.7
20260508050223 59 0.0 0.0 0.00 0.00 0.00 82 1017.9
20260508045147 59 0.0 0.0 0.00 0.00 0.00 81 1017.8
20260508044123 59 0.0 0.0 0.00 0.00 0.00 81 1017.5
20260508043147 59 0.0 0.0 0.00 0.00 0.00 80 1017.8
20260508042123 59 0.0 0.0 0.00 0.00 0.00 80 1017.9
20260508041247 59 0.0 0.0 0.00 0.00 0.00 80 1017.9
20260508040123 59 0.0 0.0 0.00 0.00 0.00 79 1017.7
20260508035147 59 0.0 0.0 0.00 0.00 0.00 78 1017.8
20260508034123 60 0.0 0.0 0.00 0.00 0.00 78 1017.6
20260508033147 59 0.0 0.0 0.00 0.00 0.00 77 1017.6
20260508032123 60 0.0 0.0 0.00 0.00 0.00 76 1017.4
20260508031207 60 0.0 0.0 0.00 0.00 0.00 76 1017.3
20260508030143 60 0.0 0.0 0.00 0.00 0.00 75 1017.5
20260508025207 60 0.0 0.0 0.00 0.00 0.00 75 1017.4
20260508024123 61 0.0 0.0 0.00 0.00 0.00 74 1017.4
20260508023147 61 0.0 0.0 0.00 0.00 0.00 73 1017.2
20260508022123 61 0.0 0.0 0.00 0.00 0.00 72 1017.2
20260508021147 61 0.0 0.0 0.00 0.00 0.00 72 1017.3
20260508020123 62 0.0 1.0 0.00 0.00 0.00 71 1017.1
20260508015147 62 0.0 0.0 0.00 0.00 0.00 71 1017.1
20260508014123 63 0.0 0.0 0.00 0.00 0.00 70 1017.1
20260508013147 64 0.0 0.0 0.00 0.00 0.00 65 1017.1
20260508012204 64 0.0 1.0 0.00 0.00 0.00 64 1016.9
20260508011147 65 0.0 0.0 0.00 0.00 0.00 64 1017.1
20260508010123 66 135 1.0 1.0 0.00 0.00 0.00 63 1016.8
20260508005147 66 0.0 0.0 0.00 0.00 0.00 62 1016.8
20260508004123 67 0.0 1.0 0.00 0.00 0.00 61 1016.9
20260508003207 68 135 1.0 3.0 0.00 0.00 0.00 61 1016.8
20260508002123 69 0.0 1.0 0.00 0.00 0.00 61 1017.0
20260508001147 70 0.0 1.0 0.00 0.00 0.00 61 1017.2
20260508000123 71 0.0 1.0 0.00 0.00 0.00 59 1016.8
20260507235147 71 90 1.0 3.0 0.00 0.00 0.00 57 1016.8
20260507234123 71 90 1.0 2.0 0.00 0.00 0.00 55 1016.7
20260507233207 72 135 1.0 1.0 0.00 0.00 0.00 56 1016.8
20260507232123 72 180 1.0 3.0 0.00 0.00 0.00 54 1016.9
20260507231147 72 90 1.0 2.0 0.00 0.00 0.00 53 1016.9
20260507230123 71 90 1.0 2.0 0.00 0.00 0.00 52 1017.0
20260507225147 72 90 1.0 1.0 0.00 0.00 0.00 51 1017.1
20260507224123 73 90 1.0 2.0 0.00 0.00 0.00 48 1017.2
20260507223147 73 90 2.0 3.0 0.00 0.00 0.00 46 1017.3
20260507222143 73 135 2.0 3.0 0.00 0.00 0.00 47 1017.3
20260507221147 74 90 1.0 2.0 0.00 0.00 0.00 46 1017.4
20260507220123 74 135 1.0 2.0 0.00 0.00 0.00 46 1017.3
20260507215147 75 90 2.0 3.0 0.00 0.00 0.00 44 1017.3
20260507214123 75 0.0 0.0 0.00 0.00 0.00 44 1017.5
20260507213147 75 45 2.0 3.0 0.00 0.00 0.00 40 1017.5
20260507212143 75 0.0 1.0 0.00 0.00 0.00 39 1017.7
20260507211147 75 0.0 1.0 0.00 0.00 0.00 36 1017.6
20260507210123 75 0 4.0 5.0 0.00 0.00 0.00 35 1017.8
20260507205228 75 45 3.0 4.0 0.00 0.00 0.00 36 1017.7
20260507204123 76 90 1.0 2.0 0.00 0.00 0.00 35 1017.8
20260507203147 76 90 1.0 2.0 0.00 0.00 0.00 39 1018.0
20260507202203 74 0 3.0 4.0 0.00 0.00 0.00 38 1018.0
20260507201147 73 90 3.0 5.0 0.00 0.00 0.00 37 1018.2
20260507200123 73 45 1.0 3.0 0.00 0.00 0.00 40 1018.2
20260507195147 73 90 7.0 9.0 0.00 0.00 0.00 37 1018.4
20260507194123 73 45 1.0 3.0 0.00 0.00 0.00 40 1018.6
20260507193308 73 0 3.0 5.0 0.00 0.00 0.00 40 1018.7
20260507192123 72 90 6.0 8.0 0.00 0.00 0.00 42 1018.7
20260507191147 72 0 3.0 3.0 0.00 0.00 0.00 42 1018.7
20260507190123 72 0 5.0 7.0 0.00 0.00 0.00 42 1019.0
20260507185147 72 0 7.0 9.0 0.00 0.00 0.00 42 1019.2
20260507184123 71 90 2.0 3.0 0.00 0.00 0.00 43 1019.3
20260507183147 71 0 4.0 5.0 0.00 0.00 0.00 42 1019.5
20260507182123 71 315 4.0 8.0 0.00 0.00 0.00 46 1019.4
20260507181147 70 225 2.0 4.0 0.00 0.00 0.00 45 1019.9
20260507180123 70 270 1.0 2.0 0.00 0.00 0.00 50 1019.7
20260507175147 69 90 4.0 6.0 0.00 0.00 0.00 50 1020.0
20260507174143 69 0 2.0 3.0 0.00 0.00 0.00 50 1020.3
20260507173147 69 45 3.0 4.0 0.00 0.00 0.00 50 1020.6
20260507172123 68 45 1.0 3.0 0.00 0.00 0.00 50 1021.0
20260507171207 68 90 3.0 5.0 0.00 0.00 0.00 50 1021.2
20260507170123 67 45 1.0 3.0 0.00 0.00 0.00 51 1021.3
20260507165147 67 90 3.0 5.0 0.00 0.00 0.00 51 1021.3
20260507164143 67 0 3.0 4.0 0.00 0.00 0.00 51 1021.4
20260507163147 66 45 3.0 5.0 0.00 0.00 0.00 54 1021.1
20260507162123 65 0 2.0 3.0 0.00 0.00 0.00 55 1021.5
20260507161147 65 0 4.0 6.0 0.00 0.00 0.00 50 1021.4
20260507160123 65 0 3.0 5.0 0.00 0.01 0.00 54 1021.5
20260507155147 65 90 3.0 3.0 0.00 0.05 0.00 55 1021.6
20260507154143 64 315 1.0 1.0 0.00 0.17 0.00 58 1021.5
20260507153147 63 0 4.0 5.0 0.00 0.17 0.00 62 1021.6
20260507152203 62 0 3.0 3.0 0.00 0.17 0.00 62 1022.0
20260507151207 62 0 2.0 5.0 0.00 0.17 0.00 63 1021.9
20260507150123 62 90 3.0 4.0 0.00 0.17 0.00 65 1021.9
20260507145147 62 45 3.0 4.0 0.00 0.17 0.00 65 1022.0
20260507144123 61 45 2.0 3.0 0.00 0.17 0.00 66 1022.1
20260507143147 60 90 4.0 5.0 0.00 0.17 0.00 69 1022.1
20260507142123 60 0 3.0 4.0 0.00 0.17 0.00 70 1022.4
20260507141147 59 90 1.0 1.0 0.00 0.17 0.00 71 1022.5
20260507140123 58 0 3.0 4.0 0.00 0.17 0.00 71 1022.3
20260507135147 58 45 1.0 2.0 0.00 0.17 0.00 76 1022.6
20260507134123 56 0 1.0 1.0 0.00 0.17 0.00 81 1022.4
20260507133147 55 0 1.0 1.0 0.00 0.17 0.00 83 1022.5
20260507132203 55 0.0 1.0 0.00 0.17 0.00 84 1022.5
20260507131147 54 315 1.0 2.0 0.00 0.17 0.00 90 1022.6
20260507130123 54 0.0 0.0 0.00 0.17 0.00 94 1022.2
20260507125147 53 0.0 1.0 0.00 0.17 0.00 98 1022.2
20260507124123 52 0.0 0.0 0.00 0.17 0.00 98 1022.4
20260507123147 51 0.0 0.0 0.00 0.17 0.00 97 1022.1
20260507122123 50 0.0 0.0 0.00 0.17 0.00 96 1022.1
20260507121147 50 0.0 0.0 0.00 0.17 0.00 96 1021.9
20260507120123 50 0.0 0.0 0.00 0.17 0.00 96 1021.8
20260507115147 50 0.0 0.0 0.00 0.17 0.00 95 1021.6
20260507114123 50 0.0 1.0 0.00 0.17 0.00 95 1021.6
20260507113147 50 45 1.0 1.0 0.00 0.17 0.00 95 1021.4
20260507112123 50 225 1.0 2.0 0.00 0.17 0.00 95 1020.9
20260507111147 50 0.0 0.0 0.00 0.17 0.00 95 1021.1
20260507110123 50 0.0 0.0 0.00 0.17 0.00 94 1021.0
20260507105147 50 0.0 0.0 0.00 0.17 0.00 94 1020.9
20260507104123 50 0.0 0.0 0.00 0.17 0.00 94 1020.6
20260507103147 50 45 1.0 1.0 0.00 0.17 0.00 94 1020.4
20260507102123 50 0.0 0.0 0.00 0.17 0.00 94 1020.2
20260507101147 51 0.0 0.0 0.00 0.17 0.00 94 1020.1
20260507100123 51 0.0 0.0 0.00 0.17 0.00 94 1020.2
20260507095147 51 0.0 0.0 0.00 0.17 0.00 94 1019.9
20260507094123 51 0.0 1.0 0.00 0.17 0.00 94 1020.0
20260507093207 51 45 1.0 2.0 0.00 0.17 0.00 94 1020.1
20260507092123 51 0.0 0.0 0.00 0.17 0.00 93 1020.1
20260507091147 51 0.0 0.0 0.00 0.17 0.00 93 1020.2
20260507090123 52 0.0 1.0 0.00 0.17 0.00 93 1019.7
20260507085147 52 0.0 0.0 0.00 0.17 0.00 92 1019.8
20260507084123 52 0.0 0.0 0.00 0.17 0.00 92 1019.8
20260507083207 52 23 1.0 1.0 0.00 0.17 0.00 92 1019.9